GW0575 Weather Reports


Display with metric or nautical units.
time (UTC)temp
F
wind
direction
speed
MPH
gust
MPH
rain 1hr
in
rain 24hr
in
rain mn
in
humidity
%
barometer
mb
20260507150520 59 250 3.0 5.0 0.00 0.46 0.38 62 1005.8
20260507145540 59 287 6.0 10.0 0.00 0.46 0.38 59 1006.3
20260507144517 58 316 3.0 7.0 0.00 0.46 0.38 59 1006.5
20260507143518 57 302 3.0 7.0 0.00 0.46 0.38 60 1006.6
20260507142518 57 5 5.0 8.0 0.00 0.46 0.38 64 1006.6
20260507141518 55 331 6.0 7.0 0.00 0.46 0.38 68 1007.0
20260507140518 55 325 4.0 7.0 0.00 0.46 0.38 70 1007.0
20260507135538 54 5 5.0 12.0 0.00 0.46 0.38 74 1007.1
20260507134538 54 9 5.0 7.0 0.00 0.46 0.38 77 1007.1
20260507133518 53 292 4.0 8.0 0.00 0.46 0.38 82 1007.2
20260507132519 53 311 4.0 9.0 0.00 0.46 0.38 88 1007.3
20260507131519 52 325 3.0 5.0 0.00 0.46 0.38 93 1006.9
20260507130519 52 352 2.0 4.0 0.00 0.46 0.38 97 1006.9
20260507125519 50 343 2.0 3.0 0.00 0.46 0.38 97 1007.0
20260507124519 50 316 4.0 6.0 0.00 0.46 0.38 97 1007.8
20260507123519 50 331 2.0 3.0 0.00 0.46 0.38 97 1007.4
20260507122551 49 316 1.0 2.0 0.00 0.46 0.38 97 1008.2
20260507121552 49 0.0 0.0 0.02 0.46 0.38 97 1008.5
20260507120517 49 244 0.0 1.0 0.06 0.46 0.38 97 1008.0
20260507115517 48 284 1.0 1.0 0.07 0.46 0.38 96 1007.9
20260507114517 48 0.0 0.0 0.08 0.46 0.38 96 1008.2
20260507113517 48 342 1.0 1.0 0.08 0.46 0.38 96 1008.1
20260507112532 48 188 2.0 2.0 0.08 0.46 0.38 95 1008.6
20260507111518 48 351 0.0 1.0 0.07 0.44 0.37 95 1008.1
20260507110558 48 283 2.0 3.0 0.03 0.40 0.33 95 1008.7
20260507105518 48 268 2.0 3.0 0.02 0.38 0.31 95 1008.3
20260507103519 48 294 2.0 3.0 0.03 0.38 0.30 94 1008.0
20260507102519 48 344 2.0 3.0 0.03 0.38 0.30 94 1008.3
20260507101517 48 303 2.0 3.0 0.03 0.38 0.30 94 1008.4
20260507100517 48 357 3.0 6.0 0.03 0.38 0.30 94 1008.3
20260507095517 49 359 3.0 5.0 0.02 0.37 0.29 93 1008.1
20260507094520 49 296 4.0 6.0 0.02 0.35 0.28 93 1008.1
20260507093558 49 301 4.0 6.0 0.03 0.35 0.27 93 1007.9
20260507092517 49 298 4.0 7.0 0.05 0.35 0.27 94 1007.9
20260507091517 49 299 3.0 6.0 0.06 0.35 0.27 94 1008.0
20260507090521 50 298 4.0 6.0 0.16 0.35 0.27 94 1008.0
20260507085518 51 302 4.0 6.0 0.19 0.34 0.27 95 1007.3
20260507084517 51 309 2.0 4.0 0.20 0.33 0.25 95 1007.4
20260507083518 51 352 4.0 6.0 0.22 0.32 0.24 94 1007.3
20260507082518 51 351 4.0 5.0 0.23 0.30 0.23 94 1007.4
20260507081521 52 326 2.0 7.0 0.21 0.29 0.21 94 1007.5
20260507080518 53 299 2.0 6.0 0.11 0.19 0.11 94 1007.6
20260507075519 54 310 5.0 8.0 0.07 0.15 0.07 93 1007.3
20260507074519 55 305 3.0 5.0 0.05 0.13 0.05 93 1007.0
20260507073519 56 279 4.0 6.0 0.02 0.10 0.02 92 1006.6
20260507072519 56 319 0.0 2.0 0.00 0.08 0.00 95 1005.8
20260507071516 56 285 1.0 2.0 0.00 0.08 0.00 96 1005.8
20260507070539 56 274 2.0 4.0 0.00 0.08 0.00 97 1005.7
20260507065519 56 300 2.0 3.0 0.00 0.08 0.00 97 1005.9
20260507064520 56 0.0 0.0 0.00 0.08 0.00 98 1005.8
20260507063539 57 291 0.0 1.0 0.00 0.08 0.00 97 1005.8
20260507062517 57 0.0 0.0 0.00 0.08 0.00 97 1005.9
20260507061518 57 90 0.0 1.0 0.00 0.08 0.00 97 1006.0
20260507060517 57 156 1.0 2.0 0.00 0.08 0.00 97 1006.1
20260507055517 57 353 0.0 1.0 0.00 0.08 0.00 97 1006.2
20260507054521 57 200 1.0 3.0 0.00 0.08 0.00 97 1006.3
20260507053521 57 193 1.0 2.0 0.00 0.08 0.00 97 1006.3
20260507052518 57 197 2.0 3.0 0.00 0.08 0.00 97 1006.4
20260507051538 57 185 1.0 2.0 0.00 0.08 0.00 97 1006.5
20260507050518 57 199 2.0 2.0 0.00 0.08 0.00 97 1006.6
20260507045518 57 194 1.0 2.0 0.00 0.08 0.00 97 1006.6
20260507044519 57 165 3.0 4.0 0.00 0.08 0.00 97 1006.6
20260507043519 57 147 0.0 1.0 0.00 0.08 0.00 97 1006.7
20260507042519 57 164 2.0 3.0 0.00 0.08 0.00 97 1006.4
20260507041519 56 147 1.0 1.0 0.00 0.08 0.00 97 1006.4
20260507040519 56 199 1.0 3.0 0.00 0.08 0.00 97 1006.5
20260507035516 56 227 2.0 5.0 0.00 0.08 0.08 97 1006.4
20260507034520 56 212 3.0 5.0 0.00 0.08 0.08 97 1006.6
20260507033520 56 194 4.0 5.0 0.00 0.08 0.08 97 1006.8
20260507032517 56 172 2.0 2.0 0.00 0.08 0.08 97 1006.7
20260507031518 56 167 2.0 3.0 0.00 0.08 0.08 97 1006.7
20260507030517 56 189 3.0 6.0 0.00 0.08 0.08 97 1006.6
20260507025520 56 205 2.0 4.0 0.00 0.08 0.08 97 1006.5
20260507024521 56 173 2.0 4.0 0.00 0.08 0.08 97 1006.5
20260507023518 56 187 2.0 5.0 0.00 0.08 0.08 97 1006.6
20260507022518 56 182 4.0 7.0 0.00 0.08 0.08 97 1006.4
20260507021519 56 191 3.0 6.0 0.00 0.08 0.08 97 1006.7
20260507020518 56 182 4.0 7.0 0.00 0.08 0.08 97 1006.6
20260507015515 56 202 2.0 4.0 0.00 0.08 0.08 97 1006.8
20260507014518 56 187 2.0 4.0 0.00 0.08 0.08 97 1007.0
20260507013518 56 214 4.0 6.0 0.00 0.08 0.08 97 1006.9
20260507012519 56 182 4.0 6.0 0.00 0.08 0.08 97 1007.1
20260507011519 56 201 5.0 7.0 0.00 0.08 0.08 97 1007.0
20260507010516 56 176 4.0 6.0 0.00 0.08 0.08 97 1007.1
20260507005539 56 156 2.0 4.0 0.00 0.08 0.08 97 1007.1
20260507004520 56 207 3.0 4.0 0.01 0.08 0.08 97 1007.1
20260507003520 56 196 5.0 8.0 0.01 0.08 0.08 97 1007.0
20260507002520 56 182 6.0 11.0 0.01 0.08 0.08 97 1007.0
20260507001517 56 198 3.0 7.0 0.01 0.08 0.08 97 1007.1
20260507000517 56 196 4.0 5.0 0.01 0.08 0.08 97 1007.1
20260506235541 56 183 5.0 7.0 0.01 0.08 0.08 96 1007.0
20260506234520 56 168 4.0 6.0 0.00 0.07 0.07 96 1007.0
20260506233517 56 214 7.0 9.0 0.00 0.07 0.07 96 1007.1
20260506232518 55 203 3.0 5.0 0.00 0.07 0.07 96 1007.2
20260506231518 55 202 4.0 6.0 0.01 0.07 0.07 96 1007.3
20260506230518 55 183 8.0 12.0 0.01 0.07 0.07 96 1007.2
20260506225518 56 210 3.0 4.0 0.01 0.07 0.07 96 1007.2
20260506224518 56 193 4.0 5.0 0.01 0.07 0.07 96 1007.0
20260506223519 56 176 4.0 7.0 0.01 0.07 0.07 96 1007.2
20260506222519 56 192 6.0 9.0 0.00 0.07 0.07 95 1007.3
20260506221519 56 178 4.0 7.0 0.00 0.06 0.06 95 1007.6
20260506220516 56 184 5.0 7.0 0.00 0.06 0.06 95 1007.6
20260506215516 56 193 4.0 8.0 0.00 0.06 0.06 94 1007.7
20260506214520 57 178 5.0 9.0 0.00 0.06 0.06 93 1007.7
20260506213519 57 184 3.0 6.0 0.00 0.06 0.06 93 1007.8
20260506212537 57 182 3.0 7.0 0.00 0.06 0.06 93 1007.9
20260506211518 57 182 2.0 5.0 0.00 0.06 0.06 93 1007.9
20260506210540 57 183 8.0 11.0 0.00 0.06 0.06 92 1008.0
20260506205521 57 197 9.0 13.0 0.02 0.06 0.06 92 1008.1
20260506204518 57 177 6.0 9.0 0.03 0.06 0.06 92 1008.0
20260506203517 58 183 6.0 11.0 0.05 0.06 0.06 92 1008.2
20260506202538 58 206 6.0 10.0 0.06 0.06 0.06 92 1008.1
20260506201538 58 206 5.0 7.0 0.06 0.06 0.06 92 1008.3
20260506200518 59 189 6.0 8.0 0.06 0.06 0.06 92 1008.2
20260506195519 59 204 7.0 14.0 0.04 0.04 0.04 89 1008.3
20260506194518 60 204 5.0 8.0 0.03 0.03 0.03 86 1008.6
20260506193518 61 177 4.0 7.0 0.01 0.01 0.01 84 1008.6
20260506192519 62 191 5.0 7.0 0.00 0.00 0.00 80 1008.6
20260506191519 62 171 8.0 15.0 0.00 0.00 0.00 77 1008.2
20260506190519 62 190 5.0 8.0 0.00 0.00 0.00 76 1008.2
20260506185539 62 184 5.0 11.0 0.00 0.00 0.00 76 1008.1
20260506184540 62 181 4.0 7.0 0.00 0.00 0.00 76 1008.1
20260506183519 63 193 5.0 8.0 0.00 0.00 0.00 75 1008.4
20260506182517 63 191 7.0 9.0 0.00 0.00 0.00 74 1008.5
20260506181538 64 181 4.0 7.0 0.00 0.00 0.00 73 1008.3
20260506180538 64 170 7.0 11.0 0.00 0.00 0.00 73 1008.5
20260506175517 65 201 7.0 11.0 0.00 0.00 0.00 72 1008.8
20260506173517 65 206 6.0 9.0 0.00 0.00 0.00 71 1008.8
20260506172517 65 180 6.0 10.0 0.00 0.00 0.00 70 1008.5
20260506171538 65 172 6.0 10.0 0.00 0.00 0.00 71 1008.8
20260506170521 65 171 9.0 12.0 0.00 0.00 0.00 70 1007.3
20260506165518 65 167 5.0 8.0 0.00 0.00 0.00 72 1008.4
20260506164518 64 185 7.0 11.0 0.00 0.00 0.00 72 1008.8
20260506163518 65 174 6.0 9.0 0.00 0.00 0.00 71 1008.9
20260506162519 64 195 5.0 7.0 0.00 0.00 0.00 71 1008.8
20260506161539 65 175 9.0 12.0 0.00 0.00 0.00 72 1009.3
20260506160519 65 173 6.0 12.0 0.00 0.00 0.00 71 1009.2
20260506155519 65 192 4.0 7.0 0.00 0.00 0.00 71 1009.4
20260506154519 65 190 4.0 8.0 0.00 0.00 0.00 72 1009.1
20260506153519 65 180 5.0 10.0 0.00 0.00 0.00 70 1008.8
20260506152517 65 187 9.0 12.0 0.00 0.00 0.00 71 1009.1
20260506151517 64 177 8.0 11.0 0.00 0.00 0.00 71 1009.5